Regional Weather Roundup
Issued by NWS Cleveland, OH

Home | Current Version | Previous Version | Graphics & Text | Print | Product List | Glossary On
Versions: 1 2 3 4 5 6 7 8 9 10 11 12 13 14 15 16 17 18 19 20 21 22 23 24 25 26 27 28 29 30 31 32 33 34 35 36 37 38 39 40 41 42 43 44 45 46 47 48 49 50
000
ASUS41 KCLE 290702
RWRCLE
OHIO REGIONAL WEATHER ROUNDUP
NATIONAL WEATHER SERVICE CLEVELAND, OH
300 AM EDT SUN MAR 29 2015

NOTE: "FAIR" INDICATES FEW OR NO CLOUDS BELOW 12,000 FEET WITH NO
SIGNIFICANT WEATHER AND/OR OBSTRUCTIONS TO VISIBILITY.

OHZ001>008-015>018-024>027-034-035-043-044-290800-
   NORTHWEST OHIO

CITY           SKY/WX    TMP DP  RH WIND       PRES   REMARKS
DEFIANCE       CLEAR     25  15  66 SW5       30.32S WCI  19
FINDLAY        CLEAR     23  16  74 S7        30.31F WCI  15
TOLEDO EXPRESS CLEAR     25  13  60 SW7       30.30S WCI  17
TOLEDO EXEC    CLEAR     24  14  65 SW7       30.32S WCI  16
LIMA           CLEAR     26  14  60 S7        30.31F WCI  18
$$

OHZ009>014-019>023-028>033-038-089-290800-
   NORTHEAST OHIO

CITY           SKY/WX    TMP DP  RH WIND       PRES   REMARKS
CLE-HOPKINS    CLEAR     19  12  74 S6        30.34F WCI  11
CLE-LAKEFRONT  CLEAR     24  12  60 S7        30.32F WCI  16
CUY CO. ARPT   NOT AVBL
LORAIN-ELYRIA  CLEAR     20  14  77 SW6       30.31F WCI  12
ASHTABULA      CLEAR     18  12  77 S3        30.31S
AKRON-CANTON   CLEAR     20   9  62 W6        30.31S WCI  12
WOOSTER        CLEAR     20  13  74 S5        30.31F WCI  13
MANSFIELD      CLEAR     19  11  70 SW8       30.29F WCI   9
YOUNGSTOWN     CLEAR     17  10  74 W6        30.29S WCI   9
$$

OHZ042-051>053-060>062-070>072-077>081-290800-
  SOUTHWEST OHIO

CITY           SKY/WX    TMP DP  RH WIND       PRES   REMARKS
CINC-COVINGTON CLEAR     25  15  66 E3        30.35S
CINC-LUNKEN    CLEAR     23  17  78 CALM      30.39R
HAMILTON       CLEAR     19  15  84 CALM      30.37S
DAYTON         CLEAR     25  14  63 S7        30.33F WCI  17
WRIGHT-PAT AFB CLEAR     21  14  74 CALM      30.34F
DAYTON GENERAL CLEAR     25  13  60 SE5       30.34S WCI  19
WILMINGTON     CLEAR     23  15  71 SE3       30.34S
$$

OHZ036-037-039>041-045>050-054>059-063>069-073>076-082>088-290800-
  CENTRAL AND SOUTHEAST OHIO

CITY           SKY/WX    TMP DP  RH WIND       PRES   REMARKS
COLUMBUS       CLEAR     20  15  81 SE3       30.35S
OSU AIRPORT    CLEAR     22  13  68 S5        30.34F WCI  16
BOLTON FIELD   NOT AVBL
RICKENBACK AFB NOT AVBL
NEWARK         CLEAR     18  13  80 CALM      30.34S
MARION         CLEAR     18  12  77 S6        30.32F WCI  10
LANCASTER      CLEAR     18  13  80 CALM      30.35F
ZANESVILLE     CLEAR     17  11  77 CALM      30.35R
NEW PHILLY     CLEAR     18  11  74 CALM      30.35R
$$


USA.gov is the U.S. government's official web portal to all federal, state and local government web resources and services.